User: anonymous   Login
Location: Unspecified
(0.0000°N, 0.0000°E)
Time: 08:59:19
(UTC+00:00)
Language:

STARLINK-2155 - Orbit

View from above orbital plane
View from above orbital plane
View from above satellite
View from above satellite

Ground track
Ground track

The orbit is defined by the following mean orbital elements,

1 48557U          26145.32375707 +.00000000 +00000-0 +92765-5 0 00008
2 48557  53.1588 130.4286 0001269  96.3918 263.7228 15.31703421    06
Epoch (UTC): 25 May 2026 07:46:12
Eccentricity: 0.0001269
inclination: 53.1588°
perigee height: 470 km
apogee height: 472 km
right ascension of ascending node: 130.4286°
argument of perigee: 96.3918°
revolutions per day: 15.31703421
mean anomaly at epoch: 263.7228°

The dashed part of the orbit path shows where the satellite is in the earth's shadow,  

DLR